sat.trackr.live / text

‹ back to catalog

UNKNOWN

NORAD 81386

UNKNOWN UNKNOWN UNKNOWN

§ Identity

Operator
Country
Launch date
Launch site
Launch vehicle
Mass (kg)
RCS (m²)

External: N2YO · Heavens-Above

§ Orbital elements

Epoch: 2026-05-22T08:10:13.213344Z

Period
100.14 min
Inclination
71.0477°
Eccentricity
0.0088419
Mean motion
14.37966874 rev/d
Perigee alt
702.1 km
Apogee alt
828.4 km
Semi-major
7,143.4 km
B*
1.0097e-3
RAAN
7.5657°
Arg perigee
190.2004°
Mean anomaly
169.7341°
Rev number
64,731

§ Raw data

UNKNOWN1 81386U          26142.34043071  .00003145  00000+0  10097-2 0  99942 81386  71.0477   7.5657 0088419 190.2004 169.7341 14.37966874647317

JSON: /api/v1/satellites/81386 · /tle

For live sub-satellite position, see the globe view (requires WebGL).

§ Visibility from observer

Set your observer location to see the next 7 days of passes ≥ 10°. The values pass through the URL so the page stays shareable.

No JS? Fill the form by hand. The geolocation button needs JavaScript.